Location: Rehoboth Beach
(38.7438°N, 75.1341°W)
Time: 11:43:02
(UTC-04:00)

Cosmos 1452 Rocket - Visible Passes

Search period start: 19 April 2015 00:00
Search period end: 29 April 2015 00:00
Orbit: 768 x 776 km, 74.1° (Epoch: 19 April)

Date Brightness Start Highest point End Pass type
(mag) Time Alt. Az. Time Alt. Az. Time Alt. Az.
19 Apr 5.6 21:29:47 10° NNE 21:31:37 12° NE 21:32:10 12° ENE visible
19 Apr 4.8 23:09:22 10° NNW 23:12:31 37° NNW 23:12:31 37° NNW visible
20 Apr 4.3 22:33:33 10° N 22:37:28 44° NNE 22:37:28 44° NNE visible
21 Apr 6.2 00:17:12 10° WNW 00:17:49 12° WNW 00:17:49 12° WNW visible
21 Apr 4.5 21:57:58 10° N 22:02:25 33° ENE 22:02:25 33° ENE visible
21 Apr 5.5 23:40:18 10° NW 23:42:47 22° WNW 23:42:47 22° WNW visible
22 Apr 5.0 21:22:41 10° NNE 21:26:31 21° ENE 21:27:25 20° ENE visible
22 Apr 4.6 23:03:57 10° NNW 23:07:46 40° WNW 23:07:46 40° WNW visible
23 Apr 5.5 20:48:02 10° NNE 20:50:13 13° NE 20:52:26 11° E visible
23 Apr 3.6 22:27:54 10° NNW 22:32:48 75° NW 22:32:48 75° NW visible
24 Apr 3.5 21:52:04 10° N 21:57:16 59° ENE 21:57:51 56° E visible
24 Apr 5.9 23:35:57 10° WNW 23:38:13 15° W 23:38:13 15° W visible
25 Apr 4.3 21:16:27 10° N 21:21:14 35° ENE 21:22:57 29° ESE visible
25 Apr 5.1 22:58:55 10° NW 23:03:16 26° W 23:03:19 26° W visible
26 Apr 4.9 20:41:07 10° N 20:45:06 22° ENE 20:48:04 14° E visible
26 Apr 4.3 22:22:31 10° NNW 22:27:31 44° WSW 22:28:27 40° SW visible
27 Apr 3.5 21:46:26 10° NNW 21:51:43 76° WSW 21:53:37 40° S visible
28 Apr 3.5 21:10:35 10° NNW 21:15:49 64° ENE 21:18:51 25° SE visible
28 Apr 5.9 22:54:44 10° WNW 22:57:27 14° W 22:59:13 12° WSW visible
